User: anonymous   Login
Location: Columbia
(38.9520°N, 92.3340°W)
Time: 19:13:48
(UTC-05:00)
Language:

CZ-2C R/B - Orbit

View from above orbital plane
View from above orbital plane
View from above satellite
View from above satellite

Ground track
Ground track

The orbit data is extracted from the following two-line orbital elements,

1 28480U 04046B   15238.93562650 +.00000009 +00000-0 +18692-4 0  9990
2 28480 098.1503 007.8758 0142466 014.2007 091.5801 14.25524516560147
Epoch (UTC): 26 August 2015 22:27:18
Eccentricity: 0.0142466
inclination: 98.1503°
perigee height: 704 km
apogee height: 909 km
right ascension of ascending node: 7.8758°
argument of perigee: 14.2007°
revolutions per day: 14.25524516
mean anomaly at epoch: 91.5801°
orbit number at epoch: 56014

The dashed part of the orbit path shows where the satellite is in the earth's shadow,  

DLR